[[{"header":{"parameterUnit":"m.s-1","parameterCategory":1,"la1":30.2991,"la2":30.254,"lo1":-89.0895,"lo2":-89.0444,"dy":0.0017,"dx":0.0017,"nx":28,"ny":28,"refTime":"2024-04-06T21:00:00:Z","depth":0,"parameterNumber":2,"parameterNumberName":"U-component_of_WINDS"},"data":[0,0,0,0,0,0,0,0,0,0,0,0,0,0,0,0,0,0,0,0,0,0,0,0,0,0,0,0,0,0,0,0,0,0,0,0,0,0,0,0,0,0,0,0,0,0,0,0,0,0,0,0,0,0,0,0,0,0,-3.0713,-3.0714,0,-3.0784,-3.0785,-3.0786,-3.0749,-3.0747,-3.0745,-3.0743,-3.0817,-3.082,-3.0824,0,0,0,0,0,0,0,0,0,0,0,0,0,-3.0545,-3.0548,-3.0713,-3.0714,-3.0715,-3.0784,-3.0785,-3.0786,-3.0749,-3.0747,-3.0745,-3.0743,-3.0815,-3.082,-3.0824,0,0,0,0,0,0,0,0,0,0,0,0,0,-3.0617,-3.055,-3.0713,-3.0705,-3.0705,-3.0784,-3.0785,-3.0786,-3.075,-3.0747,-3.0744,-3.0741,-3.0814,-3.0819,-3.0825,-3.0916,0,0,-3.0842,-3.0844,0,0,0,0,0,0,0,0,-3.0613,-3.0624,-3.0705,-3.0705,-3.0705,-3.0755,-3.0753,-3.083,-3.075,-3.0733,-3.0743,-3.074,-3.0798,-3.0805,-3.0825,-3.092,-3.0923,-3.0842,-3.0846,-3.0848,-3.085,0,0,0,0,0,0,0,-3.0608,-3.062,-3.0741,-3.0706,-3.0706,-3.0698,-3.0705,-3.0767,-3.0781,-3.0734,-3.0731,-3.074,-3.0798,-3.0819,-3.0826,-3.0924,-3.0842,-3.0847,-3.0851,-3.0853,-3.1096,-3.1099,0,0,0,0,0,0,-3.0604,-3.0616,-3.0739,-3.0743,-3.0651,-3.0703,-3.0711,-3.0742,-3.078,-3.0783,-3.0743,-3.0738,-3.0811,-3.082,-3.0829,-3.0937,-3.0848,-3.0853,-3.0857,-3.1093,-3.1097,-3.1101,0,0,0,0,0,0,-3.06,-3.0615,-3.0736,-3.0679,-3.0694,-3.0709,-3.0744,-3.0745,-3.0766,-3.0786,-3.0789,-3.0762,-3.0809,-3.0821,-3.0894,-3.0939,-3.0856,-3.0861,-3.109,-3.1095,-3.1099,-3.1155,0,0,0,0,0,0,-3.0596,-3.0614,-3.0649,-3.068,-3.0697,-3.0801,-3.0747,-3.0748,-3.0776,-3.0771,-3.0805,-3.0808,-3.0808,-3.0886,-3.09,-3.0945,-3.0865,-3.1086,-3.1092,-3.1097,-3.1149,-3.1161,-3.1171,0,0,0,0,0,-3.059,-3.0662,-3.0651,-3.0666,-3.0741,-3.0803,-3.0813,-3.0811,-3.0779,-3.0814,-3.0828,-3.0807,-3.0932,-3.0894,-3.0909,-3.0957,-3.1083,-3.109,-3.1097,-3.1144,-3.1159,-3.1171,0,0,0,0,0,0,-3.0635,-3.0666,-3.0654,-3.0738,-3.0768,-3.0797,-3.0841,-3.0827,-3.0866,-3.086,-3.0856,-3.0865,-3.0941,-3.0957,-3.0914,-3.1047,-3.1003,-3.1013,-3.1033,-3.1047,-3.1058,-3.1052,-3.087,0,0,0,0,0,-3.0655,-3.0703,-3.0728,-3.08,-3.0816,-3.0826,-3.0853,-3.0849,-3.088,-3.0893,-3.0911,-3.0942,-3.0989,-3.1019,-3.1063,-3.1152,-3.1158,-3.1192,-3.1203,-3.1212,-3.122,-3.1267,-3.1282,-3.1124,-3.1124,-3.1123,0,0,-3.0697,-3.072,-3.075,-3.081,-3.0832,-3.0882,-3.0837,-3.0892,-3.0928,-3.0901,-3.0971,-3.0986,-3.1021,-3.1102,-3.1139,-3.1118,-3.1266,-3.1221,-3.1228,-3.1231,-3.1276,-3.1291,-3.1305,-3.1128,-3.1128,-3.1127,0,0,-3.0798,-3.082,-3.0882,-3.0906,-3.0941,-3.0948,-3.0963,-3.0994,-3.1002,-3.1073,-3.1053,-3.1097,-3.1177,-3.1202,-3.1226,-3.1336,-3.1319,-3.1351,-3.1407,-3.1453,-3.1466,-3.1477,-3.1515,-3.1529,-3.136,-3.136,-3.136,0,-3.0845,-3.0919,-3.0916,-3.0972,-3.0998,-3.0976,-3.1039,-3.1062,-3.111,-3.1129,-3.1105,-3.1204,-3.1226,-3.1312,-3.1339,-3.1359,-3.1376,-3.1346,-3.1464,-3.1475,-3.1486,-3.1522,-3.1537,-3.1363,-3.1363,-3.1363,-3.1362,0,-3.0974,-3.1026,-3.1072,-3.1118,-3.115,-3.1209,-3.1215,-3.1248,-3.1242,-3.1251,-3.1323,-3.1348,-3.1396,-3.1417,-3.1412,-3.1503,-3.1488,-3.1464,-3.142,-3.1504,-3.1538,-3.1552,-3.1368,-3.1367,-3.1366,-3.1365,0,0,-3.1105,-3.1149,-3.1165,-3.1186,-3.1223,-3.1263,-3.1321,-3.1368,-3.1396,-3.143,-3.1478,-3.1547,-3.1525,-3.1551,-3.1548,-3.1589,-3.1674,-3.156,-3.1561,-3.1579,-3.1775,-3.1791,-3.1807,-3.1663,-3.1666,-3.1668,-3.1771,0,-3.1207,-3.1308,-3.1307,-3.1401,-3.1448,-3.1428,-3.1479,-3.1507,-3.1517,-3.1559,-3.157,-3.1618,-3.1586,-3.1602,-3.1642,-3.1655,-3.1713,-3.1648,-3.1707,-3.1709,-3.1697,-3.1825,-3.1843,-3.1939,-3.1785,-3.1787,-3.1788,0,-3.1339,-3.1377,-3.1475,-3.1505,-3.1524,-3.157,-3.1612,-3.1653,-3.1685,-3.1689,-3.1719,-3.171,-3.1769,-3.1724,-3.1805,-3.1761,-3.1786,-3.1796,-3.18,-3.1804,-3.1753,-3.1831,-3.197,-3.1984,-3.181,-3.1808,-3.1806,0,-3.1422,-3.1498,-3.1566,-3.1584,-3.1621,-3.1654,-3.1671,-3.17,-3.1728,-3.1766,-3.1784,-3.1828,-3.1852,-3.1886,-3.189,-3.1857,-3.1971,-3.1926,-3.1976,-3.1976,-3.1999,-3.1997,-3.2142,-3.2018,-3.2018,-3.2017,-3.2017,0,-3.1535,-3.1596,-3.1604,-3.1646,-3.1713,-3.1712,-3.1778,-3.1793,-3.1819,-3.1863,-3.1849,-3.1891,-3.1893,-3.1936,-3.1939,-3.2005,-3.2017,-3.2022,-3.2021,-3.2022,-3.2021,-3.2037,-3.2029,-3.2021,-3.202,-3.202,-3.2019,0,-3.1639,-3.1647,-3.172,-3.1749,-3.1758,-3.1806,-3.1831,-3.187,-3.188,-3.1936,-3.1949,-3.1963,-3.2013,-3.202,-3.2079,-3.2081,-3.2159,-3.2153,-3.2148,-3.2147,-3.2195,-3.219,-3.2354,-3.2375,-3.2238,-3.2239,-3.2241,0,-3.171,-3.1756,-3.179,-3.1818,-3.1837,-3.1883,-3.1911,-3.1912,-3.1943,-3.1982,-3.2017,-3.2066,-3.2104,-3.2185,-3.22,-3.2245,-3.2239,-3.2293,-3.2245,-3.2244,-3.2238,-3.2234,-3.2238,-3.2302,-3.2303,-3.2304,-3.2305,0,-3.1835,-3.1836,-3.1877,-3.192,-3.1954,-3.1988,-3.202,-3.2044,-3.205,-3.2084,-3.2135,-3.2165,-3.2224,-3.2272,-3.2316,-3.2334,-3.2321,-3.2321,-3.2334,-3.2334,-3.2329,-3.2331,-3.2172,-3.2316,-3.2315,-3.2315,-3.2314,-3.2313,-3.1923,-3.1963,-3.1992,-3.2039,-3.2063,-3.2093,-3.2131,-3.2145,-3.2187,-3.2235,-3.2234,-3.2289,-3.232,-3.2377,-3.2398,-3.2442,-3.2424,-3.2444,-3.2448,-3.2453,-3.2457,-3.2324,-3.245,-3.245,-3.2449,-3.2449,-3.2449,0,-3.2046,-3.2064,-3.2107,-3.2151,-3.2188,-3.2172,-3.2207,-3.2238,-3.2287,-3.2316,-3.2355,-3.2412,-3.2459,-3.2478,-3.2524,-3.2555,-3.255,-3.2567,-3.2563,-3.2568,-3.2471,-3.2454,-3.257,-3.257,-3.257,-3.257,-3.257,-3.257,-3.2114,-3.2179,-3.2184,-3.2262,-3.2279,-3.2333,-3.2354,-3.2382,-3.2405,-3.247,-3.2508,-3.2521,-3.2546,-3.2593,-3.2635,-3.264,-3.2657,-3.2676,-3.2678,-3.2587,-3.2574,-3.2563,-3.2547,-3.268,-3.268,-3.2771,-3.2771,-3.2772]},{"header":{"parameterUnit":"m.s-1","parameterCategory":1,"la1":30.2991,"la2":30.254,"lo1":-89.0895,"lo2":-89.0444,"dy":0.0017,"dx":0.0017,"nx":28,"ny":28,"refTime":"2024-04-06T21:00:00:Z","depth":0,"parameterNumber":3,"parameterNumberName":"V-component_of_WINDS"},"data":[0,0,0,0,0,0,0,0,0,0,0,0,0,0,0,0,0,0,0,0,0,0,0,0,0,0,0,0,0,0,0,0,0,0,0,0,0,0,0,0,0,0,0,0,0,0,0,0,0,0,0,0,0,0,0,0,0,0,3.1119,3.1119,0,3.1148,3.1148,3.1148,3.1091,3.1089,3.1087,3.1085,3.1112,3.1114,3.1117,0,0,0,0,0,0,0,0,0,0,0,0,0,3.1011,3.1013,3.1119,3.1119,3.112,3.1148,3.1148,3.1148,3.1091,3.1089,3.1087,3.1085,3.1111,3.1114,3.1117,0,0,0,0,0,0,0,0,0,0,0,0,0,3.1051,3.1014,3.1119,3.1095,3.1093,3.1147,3.1148,3.1148,3.1092,3.1089,3.1086,3.1084,3.111,3.1114,3.1117,3.1196,0,0,3.1129,3.113,0,0,0,0,0,0,0,0,3.1049,3.1055,3.1098,3.1096,3.1094,3.1113,3.112,3.1164,3.1093,3.1092,3.1085,3.1082,3.1114,3.1118,3.1129,3.1197,3.1199,3.1129,3.1131,3.1133,3.1134,0,0,0,0,0,0,0,3.1046,3.1053,3.113,3.1098,3.1096,3.1081,3.1084,3.1128,3.1118,3.1092,3.1088,3.1092,3.1113,3.1126,3.1129,3.1199,3.1129,3.1132,3.1134,3.1136,3.1332,3.1335,0,0,0,0,0,0,3.1047,3.1051,3.1129,3.1131,3.1064,3.1085,3.1088,3.111,3.1118,3.1116,3.1095,3.1089,3.1121,3.1125,3.113,3.1221,3.1133,3.1136,3.1138,3.1329,3.1333,3.1336,0,0,0,0,0,0,3.1045,3.1054,3.1128,3.109,3.1098,3.109,3.1115,3.1112,3.1124,3.112,3.1118,3.1109,3.1119,3.1125,3.118,3.1222,3.1138,3.1141,3.1326,3.133,3.1334,3.1406,0,0,0,0,0,0,3.1042,3.1054,3.1084,3.1091,3.1101,3.1179,3.1117,3.1114,3.1131,3.1125,3.1133,3.1132,3.1117,3.1175,3.1184,3.1225,3.1144,3.1322,3.1328,3.1333,3.14,3.1412,3.1423,0,0,0,0,0,3.1038,3.1103,3.1086,3.1096,3.1139,3.1181,3.1187,3.1169,3.1135,3.1165,3.1162,3.1132,3.1216,3.1181,3.119,3.1234,3.1319,3.1326,3.1333,3.1395,3.141,3.1423,0,0,0,0,0,0,3.11,3.1103,3.1085,3.1154,3.1168,3.1172,3.1209,3.1186,3.1209,3.1202,3.1178,3.118,3.124,3.1242,3.1203,3.131,3.1262,3.1271,3.1306,3.132,3.1332,3.1329,3.1147,0,0,0,0,0,3.1122,3.1157,3.1158,3.1219,3.1227,3.1217,3.1235,3.122,3.1233,3.1238,3.1239,3.1252,3.1281,3.1301,3.1328,3.1401,3.1401,3.1435,3.1446,3.1456,3.1463,3.1501,3.1515,3.1358,3.1358,3.1358,0,0,3.1167,3.1173,3.1197,3.1232,3.1241,3.1276,3.1222,3.1263,3.1289,3.1244,3.1296,3.1298,3.131,3.1375,3.1403,3.1378,3.1507,3.1465,3.1472,3.1475,3.1509,3.1524,3.1537,3.1363,3.1362,3.1361,0,0,3.1267,3.1277,3.1328,3.1338,3.1353,3.1346,3.1358,3.1366,3.1365,3.1418,3.1385,3.1415,3.1466,3.1476,3.1488,3.1593,3.1565,3.1602,3.1662,3.1699,3.1711,3.1722,3.1758,3.1771,3.161,3.161,3.161,0,3.1321,3.1375,3.1357,3.14,3.1415,3.1378,3.1429,3.1439,3.1462,3.1473,3.1446,3.1509,3.1515,3.158,3.1606,3.1617,3.1629,3.16,3.1711,3.1722,3.1732,3.1765,3.1779,3.1614,3.1614,3.1613,3.1613,0,3.144,3.1478,3.1517,3.1541,3.1561,3.1607,3.1595,3.1617,3.1601,3.1597,3.165,3.1656,3.1683,3.1698,3.1682,3.1761,3.1745,3.1715,3.1666,3.1751,3.1782,3.1795,3.1621,3.1619,3.1618,3.1617,0,0,3.1579,3.1592,3.1607,3.1616,3.163,3.1658,3.1703,3.173,3.1749,3.1766,3.1802,3.1846,3.1819,3.1832,3.1817,3.185,3.1931,3.1816,3.1815,3.1835,3.2016,3.2037,3.2052,3.1913,3.1916,3.1918,3.2014,0,3.1677,3.1755,3.174,3.1815,3.1849,3.1814,3.1852,3.1864,3.1862,3.1889,3.1886,3.1917,3.1879,3.1887,3.1917,3.1914,3.1966,3.1907,3.1944,3.1946,3.1941,3.2069,3.2092,3.2183,3.2027,3.2029,3.203,0,3.1802,3.1824,3.1903,3.1911,3.1924,3.196,3.1983,3.201,3.2023,3.2018,3.2034,3.2013,3.2056,3.2008,3.2066,3.2026,3.2041,3.2042,3.2045,3.2046,3.1992,3.2072,3.2211,3.2224,3.2049,3.2048,3.2047,0,3.1893,3.1943,3.1997,3.2006,3.2017,3.2042,3.2048,3.2058,3.2075,3.2095,3.2106,3.2131,3.2144,3.2163,3.2149,3.2116,3.2209,3.216,3.2205,3.2206,3.2225,3.2223,3.2367,3.2237,3.2237,3.2237,3.2237,0,3.2004,3.2053,3.2038,3.207,3.2124,3.2106,3.2159,3.2161,3.217,3.2201,3.2173,3.2203,3.2183,3.2211,3.22,3.2249,3.2256,3.2252,3.2248,3.2254,3.2254,3.2262,3.2254,3.2241,3.224,3.2239,3.2238,0,3.2114,3.2106,3.2162,3.2168,3.2171,3.221,3.2214,3.2244,3.2239,3.2279,3.2288,3.228,3.2312,3.23,3.2333,3.2326,3.2388,3.2377,3.2384,3.238,3.2426,3.2421,3.2577,3.2596,3.2456,3.2458,3.2459,0,3.2184,3.2222,3.2232,3.2251,3.2259,3.2291,3.2308,3.2292,3.2311,3.2328,3.2355,3.2385,3.2407,3.2459,3.2455,3.2481,3.2469,3.2522,3.2472,3.2476,3.2467,3.2465,3.2468,3.2531,3.2533,3.2534,3.2535,0,3.2309,3.2303,3.233,3.2356,3.2378,3.2397,3.2413,3.2431,3.2415,3.2438,3.247,3.2488,3.2522,3.2551,3.2573,3.2578,3.2553,3.2551,3.2562,3.2567,3.2569,3.2567,3.2409,3.2547,3.2546,3.2545,3.2544,3.2544,3.24,3.2431,3.2443,3.2474,3.2485,3.2501,3.2529,3.2528,3.2555,3.2582,3.2571,3.2608,3.2619,3.2647,3.2654,3.2682,3.2661,3.2678,3.2682,3.2686,3.2692,3.2567,3.2686,3.2686,3.2686,3.2685,3.2685,0,3.2522,3.2528,3.2557,3.2581,3.2605,3.2582,3.2599,3.262,3.2653,3.2666,3.2689,3.2725,3.2753,3.2752,3.2778,3.28,3.279,3.2807,3.2805,3.2806,3.2709,3.2696,3.2815,3.2815,3.2815,3.2815,3.2815,3.2815,3.2588,3.2639,3.2635,3.2691,3.2696,3.2733,3.2744,3.2758,3.2768,3.2811,3.2834,3.2834,3.2841,3.2867,3.2891,3.289,3.29,3.2921,3.2916,3.2826,3.2813,3.28,3.2788,3.2924,3.2924,3.3009,3.301,3.3011]}]]